| time (UTC) | temp F | wind direction | speed MPH | gust MPH | rain 1hr in | rain 24hr in | rain mn in | humidity % | barometer mb |
| 20260510075528 | 55 | 215 | 0.0 | 2.0 | 0.00 | 0.09 | 0.00 | 88 | 1011.8 |
| 20260510074527 | 56 | 0.0 | 0.0 | 0.00 | 0.10 | 0.00 | 87 | 1011.7 | |
| 20260510073527 | 56 | 194 | 0.0 | 3.0 | 0.00 | 0.11 | 0.00 | 86 | 1011.6 |
| 20260510072527 | 56 | 66 | 1.0 | 2.0 | 0.00 | 0.12 | 0.00 | 86 | 1011.4 |
| 20260510071527 | 56 | 320 | 2.0 | 4.0 | 0.00 | 0.13 | 0.00 | 86 | 1011.5 |
| 20260510070547 | 56 | 279 | 2.0 | 4.0 | 0.00 | 0.14 | 0.00 | 85 | 1011.2 |
| 20260510065547 | 56 | 179 | 2.0 | 2.0 | 0.00 | 0.15 | 0.00 | 85 | 1011.1 |
| 20260510064527 | 56 | 185 | 2.0 | 2.0 | 0.00 | 0.15 | 0.00 | 85 | 1011.2 |
| 20260510063527 | 56 | 220 | 2.0 | 3.0 | 0.00 | 0.15 | 0.00 | 86 | 1011.3 |
| 20260510062547 | 56 | 193 | 3.0 | 4.0 | 0.00 | 0.15 | 0.00 | 87 | 1011.2 |
| 20260510061547 | 56 | 196 | 2.0 | 3.0 | 0.00 | 0.15 | 0.00 | 88 | 1011.3 |
| 20260510060547 | 55 | 205 | 2.0 | 3.0 | 0.00 | 0.16 | 0.00 | 89 | 1011.6 |
| 20260510055527 | 56 | 0.0 | 0.0 | 0.00 | 0.17 | 0.00 | 89 | 1011.6 | |
| 20260510054547 | 55 | 0.0 | 0.0 | 0.00 | 0.17 | 0.00 | 87 | 1011.7 | |
| 20260510053547 | 56 | 0.0 | 0.0 | 0.00 | 0.18 | 0.00 | 86 | 1011.7 | |
| 20260510052527 | 56 | 0.0 | 0.0 | 0.00 | 0.18 | 0.00 | 86 | 1011.7 | |
| 20260510051527 | 56 | 0.0 | 0.0 | 0.00 | 0.18 | 0.00 | 86 | 1011.7 | |
| 20260510050527 | 56 | 0.0 | 0.0 | 0.00 | 0.18 | 0.00 | 86 | 1011.5 | |
| 20260510045527 | 57 | 0.0 | 0.0 | 0.00 | 0.18 | 0.00 | 85 | 1011.4 | |
| 20260510044548 | 57 | 0.0 | 0.0 | 0.00 | 0.18 | 0.00 | 85 | 1011.4 | |
| 20260510043527 | 57 | 212 | 1.0 | 2.0 | 0.00 | 0.18 | 0.00 | 86 | 1011.5 |
| 20260510042527 | 57 | 225 | 1.0 | 2.0 | 0.00 | 0.18 | 0.00 | 87 | 1011.5 |
| 20260510041548 | 56 | 0.0 | 0.0 | 0.00 | 0.18 | 0.00 | 85 | 1011.5 | |
| 20260510040527 | 56 | 223 | 0.0 | 2.0 | 0.00 | 0.19 | 0.00 | 86 | 1011.6 |
| 20260510035527 | 56 | 0.0 | 0.0 | 0.00 | 0.19 | 0.19 | 87 | 1011.6 | |
| 20260510034527 | 56 | 196 | 0.0 | 1.0 | 0.00 | 0.19 | 0.19 | 87 | 1011.6 |
| 20260510033527 | 56 | 0.0 | 0.0 | 0.00 | 0.19 | 0.19 | 85 | 1011.5 | |
| 20260510032528 | 57 | 0.0 | 0.0 | 0.00 | 0.20 | 0.19 | 84 | 1011.5 | |
| 20260510031527 | 57 | 272 | 0.0 | 2.0 | 0.00 | 0.20 | 0.19 | 85 | 1011.5 |
| 20260510030527 | 58 | 0.0 | 0.0 | 0.00 | 0.21 | 0.19 | 83 | 1011.5 | |
| 20260510025548 | 58 | 211 | 1.0 | 2.0 | 0.00 | 0.21 | 0.19 | 83 | 1011.4 |
| 20260510024527 | 58 | 0.0 | 0.0 | 0.00 | 0.22 | 0.19 | 81 | 1011.3 | |
| 20260510023548 | 58 | 0.0 | 0.0 | 0.00 | 0.22 | 0.19 | 79 | 1011.2 | |
| 20260510022527 | 59 | 0.0 | 0.0 | 0.00 | 0.23 | 0.19 | 78 | 1011.0 | |
| 20260510021527 | 60 | 0.0 | 0.0 | 0.00 | 0.24 | 0.19 | 78 | 1010.9 | |
| 20260510020528 | 60 | 0.0 | 0.0 | 0.00 | 0.24 | 0.19 | 74 | 1010.8 | |
| 20260510015528 | 60 | 0.0 | 0.0 | 0.00 | 0.24 | 0.19 | 74 | 1010.7 | |
| 20260510014527 | 61 | 0.0 | 0.0 | 0.00 | 0.24 | 0.19 | 71 | 1010.6 | |
| 20260510013528 | 62 | 0.0 | 0.0 | 0.00 | 0.24 | 0.19 | 71 | 1010.4 | |
| 20260510012527 | 63 | 221 | 0.0 | 2.0 | 0.00 | 0.24 | 0.19 | 69 | 1010.2 |
| 20260510011528 | 63 | 0.0 | 0.0 | 0.00 | 0.24 | 0.19 | 66 | 1010.0 | |
| 20260510010528 | 64 | 0.0 | 0.0 | 0.00 | 0.24 | 0.19 | 65 | 1009.9 | |
| 20260510005527 | 66 | 0.0 | 0.0 | 0.00 | 0.24 | 0.19 | 62 | 1009.8 | |
| 20260510004528 | 67 | 227 | 0.0 | 2.0 | 0.00 | 0.24 | 0.19 | 61 | 1009.7 |
| 20260510003528 | 68 | 234 | 1.0 | 3.0 | 0.00 | 0.24 | 0.19 | 57 | 1009.5 |
| 20260510002528 | 69 | 227 | 2.0 | 6.0 | 0.00 | 0.24 | 0.19 | 55 | 1009.3 |
| 20260510001548 | 70 | 224 | 3.0 | 6.0 | 0.00 | 0.24 | 0.19 | 53 | 1009.1 |
| 20260510000528 | 71 | 249 | 4.0 | 7.0 | 0.00 | 0.24 | 0.19 | 52 | 1008.9 |
| 20260509235528 | 72 | 224 | 5.0 | 8.0 | 0.00 | 0.24 | 0.19 | 50 | 1008.9 |
| 20260509234528 | 73 | 242 | 6.0 | 10.0 | 0.00 | 0.24 | 0.19 | 48 | 1008.8 |
| 20260509233528 | 73 | 252 | 5.0 | 10.0 | 0.00 | 0.24 | 0.19 | 47 | 1008.6 |
| 20260509232528 | 75 | 238 | 5.0 | 13.0 | 0.00 | 0.24 | 0.19 | 47 | 1008.5 |
| 20260509231528 | 75 | 220 | 5.0 | 9.0 | 0.00 | 0.24 | 0.19 | 48 | 1008.4 |
| 20260509230528 | 75 | 236 | 5.0 | 10.0 | 0.00 | 0.24 | 0.19 | 47 | 1008.3 |
| 20260509225608 | 75 | 229 | 7.0 | 10.0 | 0.00 | 0.24 | 0.19 | 49 | 1008.3 |
| 20260509224528 | 75 | 243 | 8.0 | 13.0 | 0.00 | 0.24 | 0.19 | 48 | 1008.3 |
| 20260509223528 | 76 | 213 | 7.0 | 14.0 | 0.00 | 0.24 | 0.19 | 47 | 1008.3 |
| 20260509222528 | 76 | 221 | 7.0 | 14.0 | 0.00 | 0.24 | 0.19 | 46 | 1008.3 |
| 20260509221528 | 76 | 275 | 7.0 | 11.0 | 0.00 | 0.24 | 0.19 | 45 | 1008.4 |
| 20260509220528 | 76 | 228 | 8.0 | 12.0 | 0.00 | 0.24 | 0.19 | 45 | 1008.4 |
| 20260509215528 | 76 | 217 | 10.0 | 16.0 | 0.00 | 0.24 | 0.19 | 46 | 1008.5 |
| 20260509214528 | 76 | 219 | 9.0 | 15.0 | 0.00 | 0.24 | 0.19 | 45 | 1008.3 |
| 20260509213528 | 76 | 223 | 9.0 | 13.0 | 0.00 | 0.24 | 0.19 | 47 | 1008.4 |
| 20260509212529 | 75 | 241 | 8.0 | 11.0 | 0.00 | 0.24 | 0.19 | 52 | 1008.5 |
| 20260509211528 | 75 | 211 | 10.0 | 16.0 | 0.00 | 0.24 | 0.19 | 51 | 1008.5 |
| 20260509210528 | 75 | 204 | 11.0 | 17.0 | 0.00 | 0.24 | 0.19 | 52 | 1008.5 |
| 20260509205528 | 75 | 204 | 11.0 | 17.0 | 0.00 | 0.24 | 0.19 | 52 | 1008.5 |
| 20260509204529 | 75 | 208 | 10.0 | 14.0 | 0.00 | 0.24 | 0.19 | 52 | 1008.5 |
| 20260509203529 | 75 | 209 | 11.0 | 15.0 | 0.00 | 0.24 | 0.19 | 52 | 1008.7 |
| 20260509202608 | 75 | 221 | 8.0 | 13.0 | 0.00 | 0.24 | 0.19 | 55 | 1008.6 |
| 20260509201528 | 75 | 213 | 8.0 | 13.0 | 0.00 | 0.24 | 0.19 | 54 | 1008.7 |
| 20260509200529 | 74 | 210 | 9.0 | 11.0 | 0.00 | 0.24 | 0.19 | 54 | 1008.9 |
| 20260509195528 | 74 | 206 | 10.0 | 15.0 | 0.00 | 0.24 | 0.19 | 56 | 1009.1 |
| 20260509194529 | 73 | 218 | 11.0 | 17.0 | 0.00 | 0.24 | 0.19 | 56 | 1009.1 |
| 20260509193528 | 73 | 217 | 9.0 | 14.0 | 0.00 | 0.24 | 0.19 | 58 | 1009.1 |
| 20260509192528 | 73 | 208 | 9.0 | 14.0 | 0.00 | 0.24 | 0.19 | 58 | 1009.1 |
| 20260509191528 | 73 | 197 | 9.0 | 14.0 | 0.00 | 0.24 | 0.19 | 60 | 1009.2 |
| 20260509190528 | 72 | 208 | 11.0 | 14.0 | 0.00 | 0.24 | 0.19 | 60 | 1009.3 |
| 20260509185528 | 72 | 219 | 9.0 | 16.0 | 0.00 | 0.24 | 0.19 | 61 | 1009.4 |
| 20260509184529 | 72 | 198 | 10.0 | 13.0 | 0.00 | 0.24 | 0.19 | 61 | 1009.5 |
| 20260509183528 | 71 | 226 | 7.0 | 10.0 | 0.00 | 0.24 | 0.19 | 62 | 1009.4 |
| 20260509182519 | 71 | 218 | 8.0 | 14.0 | 0.00 | 0.24 | 0.19 | 61 | 1009.5 |
| 20260509181518 | 71 | 213 | 9.0 | 12.0 | 0.00 | 0.24 | 0.19 | 62 | 1009.5 |
| 20260509180518 | 71 | 235 | 6.0 | 10.0 | 0.00 | 0.24 | 0.19 | 63 | 1009.6 |
| 20260509175519 | 71 | 214 | 7.0 | 11.0 | 0.00 | 0.24 | 0.19 | 63 | 1009.7 |
| 20260509174518 | 69 | 212 | 9.0 | 14.0 | 0.00 | 0.24 | 0.19 | 65 | 1009.7 |
| 20260509173519 | 70 | 234 | 7.0 | 10.0 | 0.00 | 0.24 | 0.19 | 65 | 1009.9 |
| 20260509172519 | 70 | 236 | 5.0 | 10.0 | 0.00 | 0.24 | 0.19 | 64 | 1009.8 |
| 20260509171519 | 70 | 220 | 7.0 | 9.0 | 0.00 | 0.24 | 0.19 | 66 | 1009.8 |
| 20260509170519 | 68 | 217 | 7.0 | 12.0 | 0.00 | 0.24 | 0.19 | 67 | 1009.8 |
| 20260509165519 | 67 | 206 | 8.0 | 13.0 | 0.00 | 0.24 | 0.19 | 69 | 1009.9 |
| 20260509164519 | 67 | 211 | 7.0 | 11.0 | 0.00 | 0.24 | 0.19 | 68 | 1009.8 |
| 20260509163519 | 67 | 226 | 8.0 | 13.0 | 0.00 | 0.24 | 0.19 | 68 | 1009.8 |
| 20260509162539 | 67 | 219 | 7.0 | 14.0 | 0.00 | 0.24 | 0.19 | 70 | 1009.9 |
| 20260509161519 | 65 | 225 | 7.0 | 12.0 | 0.00 | 0.24 | 0.19 | 73 | 1009.9 |
| 20260509160519 | 64 | 209 | 8.0 | 11.0 | 0.00 | 0.24 | 0.19 | 75 | 1010.0 |
| 20260509155518 | 65 | 217 | 9.0 | 14.0 | 0.00 | 0.24 | 0.19 | 74 | 1009.9 |
| 20260509154519 | 65 | 200 | 9.0 | 14.0 | 0.00 | 0.24 | 0.19 | 73 | 1009.7 |
| 20260509153519 | 65 | 241 | 7.0 | 12.0 | 0.00 | 0.24 | 0.19 | 74 | 1009.6 |
| 20260509152519 | 64 | 225 | 8.0 | 11.0 | 0.00 | 0.24 | 0.19 | 75 | 1009.7 |
| 20260509151519 | 64 | 244 | 5.0 | 9.0 | 0.00 | 0.24 | 0.19 | 75 | 1009.7 |
| 20260509150519 | 64 | 214 | 7.0 | 10.0 | 0.00 | 0.24 | 0.19 | 78 | 1009.6 |
| 20260509145519 | 64 | 191 | 8.0 | 11.0 | 0.00 | 0.24 | 0.19 | 78 | 1009.5 |
| 20260509144519 | 63 | 206 | 9.0 | 13.0 | 0.00 | 0.24 | 0.19 | 78 | 1009.5 |
| 20260509143519 | 64 | 207 | 8.0 | 10.0 | 0.00 | 0.24 | 0.19 | 79 | 1009.5 |
| 20260509142519 | 63 | 189 | 7.0 | 9.0 | 0.00 | 0.24 | 0.19 | 79 | 1009.4 |
| 20260509141519 | 63 | 204 | 6.0 | 9.0 | 0.00 | 0.24 | 0.19 | 81 | 1009.3 |
| 20260509140519 | 62 | 175 | 7.0 | 10.0 | 0.00 | 0.24 | 0.19 | 82 | 1009.3 |
| 20260509135519 | 62 | 197 | 6.0 | 9.0 | 0.00 | 0.24 | 0.19 | 84 | 1009.4 |
| 20260509134540 | 61 | 215 | 6.0 | 9.0 | 0.00 | 0.24 | 0.19 | 86 | 1009.3 |
| 20260509133519 | 61 | 215 | 7.0 | 9.0 | 0.00 | 0.24 | 0.19 | 85 | 1009.2 |
| 20260509132519 | 61 | 205 | 5.0 | 7.0 | 0.00 | 0.24 | 0.19 | 87 | 1009.2 |
| 20260509131520 | 60 | 194 | 6.0 | 9.0 | 0.00 | 0.24 | 0.19 | 89 | 1009.3 |
| 20260509130519 | 59 | 203 | 6.0 | 9.0 | 0.00 | 0.24 | 0.19 | 89 | 1009.3 |
| 20260509125520 | 58 | 188 | 4.0 | 5.0 | 0.00 | 0.24 | 0.19 | 92 | 1009.2 |
| 20260509124519 | 57 | 194 | 4.0 | 6.0 | 0.00 | 0.24 | 0.19 | 94 | 1009.2 |
| 20260509123539 | 57 | 207 | 3.0 | 5.0 | 0.00 | 0.24 | 0.19 | 97 | 1009.1 |
| 20260509122519 | 56 | 207 | 2.0 | 5.0 | 0.00 | 0.24 | 0.19 | 97 | 1009.0 |
| 20260509121519 | 55 | 175 | 3.0 | 4.0 | 0.01 | 0.24 | 0.19 | 98 | 1008.9 |
| 20260509120520 | 55 | 201 | 2.0 | 3.0 | 0.01 | 0.24 | 0.19 | 99 | 1008.8 |
| 20260509115520 | 54 | 192 | 3.0 | 4.0 | 0.01 | 0.24 | 0.19 | 99 | 1008.9 |
| 20260509114519 | 54 | 214 | 2.0 | 4.0 | 0.01 | 0.24 | 0.19 | 99 | 1008.9 |
| 20260509113519 | 54 | 186 | 2.0 | 4.0 | 0.01 | 0.24 | 0.19 | 99 | 1008.8 |
| 20260509112520 | 54 | 185 | 2.0 | 4.0 | 0.01 | 0.24 | 0.19 | 99 | 1008.6 |
| 20260509111520 | 54 | 196 | 4.0 | 5.0 | 0.00 | 0.23 | 0.18 | 99 | 1008.6 |
| 20260509110520 | 54 | 175 | 1.0 | 2.0 | 0.00 | 0.23 | 0.18 | 99 | 1008.5 |
| 20260509105519 | 54 | 110 | 0.0 | 2.0 | 0.00 | 0.23 | 0.18 | 99 | 1008.4 |
| 20260509104520 | 54 | 62 | 0.0 | 2.0 | 0.00 | 0.23 | 0.18 | 99 | 1008.3 |
| 20260509103520 | 54 | 155 | 2.0 | 4.0 | 0.00 | 0.23 | 0.18 | 99 | 1008.3 |
| 20260509102520 | 54 | 161 | 1.0 | 2.0 | 0.01 | 0.23 | 0.18 | 99 | 1008.4 |
| 20260509101520 | 54 | 170 | 1.0 | 2.0 | 0.01 | 0.23 | 0.18 | 99 | 1008.6 |
| 20260509100540 | 54 | 187 | 1.0 | 3.0 | 0.03 | 0.23 | 0.18 | 99 | 1008.9 |
| 20260509095519 | 54 | 181 | 2.0 | 3.0 | 0.04 | 0.23 | 0.18 | 99 | 1008.8 |
| 20260509094520 | 54 | 0.0 | 0.0 | 0.04 | 0.23 | 0.18 | 98 | 1008.9 | |
| 20260509093520 | 54 | 0.0 | 0.0 | 0.04 | 0.23 | 0.18 | 98 | 1009.2 | |
| 20260509092520 | 54 | 203 | 1.0 | 2.0 | 0.04 | 0.22 | 0.17 | 98 | 1009.3 |
| 20260509091701 | 54 | 0.0 | 1.0 | 0.05 | 0.22 | 0.17 | 98 | 1009.2 | |
| 20260509090520 | 54 | 203 | 2.0 | 3.0 | 0.05 | 0.20 | 0.15 | 98 | 1009.4 |
| 20260509085520 | 54 | 0.0 | 0.0 | 0.04 | 0.19 | 0.14 | 98 | 1009.3 | |
| 20260509084520 | 54 | 89 | 1.0 | 3.0 | 0.05 | 0.19 | 0.14 | 98 | 1009.4 |
| 20260509083540 | 54 | 0.0 | 0.0 | 0.06 | 0.19 | 0.14 | 98 | 1009.5 | |
| 20260509082600 | 54 | 152 | 0.0 | 2.0 | 0.06 | 0.18 | 0.13 | 98 | 1009.7 |
| 20260509081520 | 54 | 0.0 | 0.0 | 0.06 | 0.17 | 0.12 | 98 | 1009.7 | |
| 20260509080520 | 54 | 0.0 | 0.0 | 0.05 | 0.15 | 0.10 | 98 | 1009.8 |